• In Hungary
  • List of Countries
  • For 7 days
  • Water Temperature
  • Satellite Maps
  • Weather Map
  • News
  • Weather Widgets
  • user-avatar
    Login

    Hourly Weather Herstal

    Today, 19 September, Wednesday

    Time Temperature Precipitation Wind Pressure Humidity
    00:00 +18°C° 0.1 mm 1 mps 749 mmHg 89%
    01:00 +18°C° 0.1 mm 1 mps 749 mmHg 90%
    02:00 +16°C° 0.1 mm 2 mps 749 mmHg 91%
    03:00 +16°C° 0.1 mm 2 mps 750 mmHg 91%
    04:00 +16°C° 0 mm 2 mps 750 mmHg 91%
    05:00 +16°C° 0 mm 2 mps 750 mmHg 91%
    06:00 +17°C° 0 mm 2 mps 750 mmHg 91%
    07:00 +19°C° 0 mm 3 mps 750 mmHg 85%
    08:00 +20°C° 0 mm 4 mps 750 mmHg 78%
    09:00 +22°C° 0 mm 5 mps 750 mmHg 72%
    10:00 +23°C° 0 mm 5 mps 750 mmHg 68%
    11:00 +25°C° 0 mm 5 mps 750 mmHg 64%
    12:00 +26°C° 0 mm 6 mps 750 mmHg 61%
    13:00 +26°C° 0 mm 6 mps 750 mmHg 59%
    14:00 +26°C° 0 mm 5 mps 750 mmHg 58%
    15:00 +26°C° 0 mm 5 mps 750 mmHg 56%
    16:00 +23°C° 0 mm 4 mps 750 mmHg 62%
    17:00 +22°C° 0 mm 3 mps 750 mmHg 69%
    18:00 +20°C° 0 mm 2 mps 750 mmHg 75%
    19:00 +19°C° 0 mm 2 mps 750 mmHg 78%
    20:00 +18°C° 0 mm 2 mps 751 mmHg 81%
    21:00 +17°C° 0 mm 2 mps 751 mmHg 84%
    22:00 +17°C° 0 mm 2 mps 751 mmHg 85%
    23:00 +16°C° 0 mm 2 mps 751 mmHg 86%

    Tomorrow, 20 September, Thursday

    Time Temperature Precipitation Wind Pressure Humidity
    00:00 +16°C° 0 mm 2 mps 751 mmHg 88%
    01:00 +16°C° 0 mm 2 mps 751 mmHg 88%
    02:00 +14°C° 0 mm 3 mps 751 mmHg 89%
    03:00 +14°C° 0 mm 3 mps 751 mmHg 90%
    04:00 +14°C° 0 mm 3 mps 751 mmHg 90%
    05:00 +14°C° 0 mm 3 mps 751 mmHg 90%
    06:00 +14°C° 0 mm 3 mps 751 mmHg 90%
    07:00 +17°C° 0 mm 4 mps 751 mmHg 83%
    08:00 +19°C° 0 mm 4 mps 751 mmHg 76%
    09:00 +21°C° 0 mm 5 mps 751 mmHg 69%
    10:00 +22°C° 0 mm 5 mps 751 mmHg 65%
    11:00 +23°C° 0 mm 5 mps 750 mmHg 62%
    12:00 +25°C° 0 mm 5 mps 750 mmHg 58%
    13:00 +25°C° 0 mm 5 mps 750 mmHg 57%
    14:00 +25°C° 0 mm 5 mps 749 mmHg 56%
    15:00 +26°C° 0 mm 5 mps 749 mmHg 56%
    16:00 +23°C° 0 mm 4 mps 748 mmHg 62%
    17:00 +21°C° 0 mm 3 mps 748 mmHg 68%
    18:00 +20°C° 0 mm 3 mps 747 mmHg 73%
    19:00 +20°C° 0 mm 3 mps 747 mmHg 70%
    20:00 +20°C° 0 mm 4 mps 747 mmHg 67%
    21:00 +20°C° 0 mm 4 mps 746 mmHg 64%
    22:00 +20°C° 0 mm 4 mps 746 mmHg 62%
    23:00 +20°C° 0 mm 5 mps 745 mmHg 60%

    Day after tomorrow, 21 September, Friday

    Time Temperature Precipitation Wind Pressure Humidity
    00:00 +21°C° 0 mm 5 mps 745 mmHg 58%
    01:00 +20°C° 0 mm 5 mps 744 mmHg 58%
    02:00 +20°C° 0 mm 5 mps 744 mmHg 59%
    03:00 +20°C° 0 mm 5 mps 744 mmHg 59%
    04:00 +20°C° 0 mm 6 mps 743 mmHg 60%
    05:00 +19°C° 0 mm 6 mps 743 mmHg 62%
    06:00 +19°C° 0 mm 6 mps 742 mmHg 63%
    07:00 +18°C° 0.4 mm 7 mps 743 mmHg 65%
    08:00 +20°C° 0.4 mm 7 mps 743 mmHg 68%
    09:00 +20°C° 0.4 mm 8 mps 743 mmHg 70%
    10:00 +17°C° 1.7 mm 7 mps 744 mmHg 76%
    11:00 +16°C° 1.7 mm 6 mps 744 mmHg 82%
    12:00 +15°C° 1.7 mm 5 mps 745 mmHg 88%
    13:00 +14°C° 0.8 mm 4 mps 745 mmHg 87%
    14:00 +14°C° 0.8 mm 4 mps 745 mmHg 87%
    15:00 +13°C° 0.8 mm 4 mps 745 mmHg 86%
    16:00 +12°C° 0.3 mm 4 mps 746 mmHg 87%
    17:00 +12°C° 0.3 mm 3 mps 747 mmHg 87%
    18:00 +11°C° 0.3 mm 3 mps 747 mmHg 87%
    19:00 +10°C° 0 mm 3 mps 748 mmHg 87%
    20:00 +10°C° 0 mm 3 mps 749 mmHg 87%
    21:00 +9°C° 0 mm 3 mps 750 mmHg 87%
    22:00 +9°C° 0 mm 3 mps 750 mmHg 87%
    23:00 +9°C° 0 mm 3 mps 751 mmHg 88%

    22 September, Saturday

    Time Temperature Precipitation Wind Pressure Humidity
    00:00 +8°C° 0 mm 3 mps 751 mmHg 88%
    01:00 +8°C° 0 mm 3 mps 751 mmHg 88%
    02:00 +8°C° 0 mm 3 mps 752 mmHg 89%
    03:00 +8°C° 0 mm 3 mps 752 mmHg 89%
    04:00 +8°C° 0 mm 3 mps 753 mmHg 89%
    05:00 +7°C° 0 mm 3 mps 753 mmHg 89%
    06:00 +7°C° 0 mm 3 mps 753 mmHg 88%
    07:00 +8°C° 0 mm 4 mps 754 mmHg 81%
    08:00 +11°C° 0 mm 4 mps 754 mmHg 73%
    09:00 +13°C° 0 mm 5 mps 754 mmHg 66%
    10:00 +14°C° 0.1 mm 5 mps 754 mmHg 62%
    11:00 +15°C° 0.1 mm 5 mps 754 mmHg 58%
    12:00 +16°C° 0.1 mm 5 mps 754 mmHg 54%
    13:00 +16°C° 0.1 mm 5 mps 754 mmHg 53%
    14:00 +16°C° 0.1 mm 5 mps 754 mmHg 52%
    15:00 +17°C° 0.1 mm 4 mps 754 mmHg 51%
    16:00 +14°C° 0 mm 3 mps 754 mmHg 58%
    17:00 +13°C° 0 mm 2 mps 755 mmHg 64%
    18:00 +11°C° 0 mm 1 mps 755 mmHg 71%
    19:00 +11°C° 0 mm 1 mps 755 mmHg 73%
    20:00 +10°C° 0 mm 1 mps 755 mmHg 74%
    21:00 +10°C° 0 mm 1 mps 755 mmHg 76%
    22:00 +9°C° 0 mm 1 mps 754 mmHg 77%
    23:00 +8°C° 0 mm 2 mps 753 mmHg 77%

    23 September, Sunday

    Time Temperature Precipitation Wind Pressure Humidity
    00:00 +8°C° 0 mm 2 mps 753 mmHg 78%
    01:00 +9°C° 0 mm 2 mps 752 mmHg 75%
    02:00 +10°C° 0 mm 3 mps 751 mmHg 71%
    03:00 +11°C° 0 mm 4 mps 750 mmHg 68%
    04:00 +11°C° 0.2 mm 4 mps 749 mmHg 72%
    05:00 +9°C° 0.2 mm 5 mps 748 mmHg 76%
    06:00 +9°C° 0.2 mm 5 mps 747 mmHg 81%
    07:00 +10°C° 0.1 mm 6 mps 746 mmHg 76%
    08:00 +11°C° 0.1 mm 7 mps 744 mmHg 72%
    09:00 +11°C° 0.1 mm 8 mps 742 mmHg 68%
    10:00 +12°C° 0.7 mm 9 mps 741 mmHg 67%
    11:00 +13°C° 0.7 mm 9 mps 739 mmHg 66%
    12:00 +14°C° 0.7 mm 10 mps 737 mmHg 65%
    13:00 +16°C° 0.6 mm 9 mps 736 mmHg 71%
    14:00 +16°C° 0.6 mm 9 mps 735 mmHg 76%
    15:00 +16°C° 0.6 mm 8 mps 734 mmHg 81%
    16:00 +15°C° 0.1 mm 8 mps 734 mmHg 76%
    17:00 +13°C° 0.1 mm 9 mps 733 mmHg 71%
    18:00 +12°C° 0.1 mm 9 mps 733 mmHg 66%
    19:00 +12°C° 0.1 mm 10 mps 732 mmHg 66%
    20:00 +12°C° 0.1 mm 11 mps 732 mmHg 67%
    21:00 +10°C° 0.1 mm 12 mps 731 mmHg 67%
    22:00 +10°C° 0.6 mm 12 mps 731 mmHg 74%
    23:00 +11°C° 0.6 mm 11 mps 731 mmHg 81%

    24 September, Monday

    Time Temperature Precipitation Wind Pressure Humidity
    00:00 +11°C° 0.6 mm 11 mps 730 mmHg 87%
    01:00 +11°C° 1.3 mm 11 mps 731 mmHg 88%
    02:00 +11°C° 1.3 mm 10 mps 732 mmHg 88%
    03:00 +12°C° 1.3 mm 10 mps 732 mmHg 89%
    04:00 +11°C° 0.5 mm 10 mps 734 mmHg 89%
    05:00 +11°C° 0.5 mm 9 mps 737 mmHg 89%
    06:00 +11°C° 0.5 mm 9 mps 739 mmHg 89%
    07:00 +11°C° 0.6 mm 9 mps 741 mmHg 87%
    08:00 +10°C° 0.6 mm 9 mps 743 mmHg 86%
    09:00 +10°C° 0.6 mm 9 mps 746 mmHg 84%
    10:00 +11°C° 0.1 mm 9 mps 747 mmHg 77%
    11:00 +11°C° 0.1 mm 9 mps 749 mmHg 69%
    12:00 +12°C° 0.1 mm 9 mps 750 mmHg 61%
    13:00 +12°C° 0.1 mm 8 mps 751 mmHg 62%
    14:00 +11°C° 0.1 mm 8 mps 752 mmHg 62%
    15:00 +11°C° 0.1 mm 7 mps 753 mmHg 63%
    16:00 +10°C° 0.1 mm 6 mps 754 mmHg 67%
    17:00 +9°C° 0.1 mm 5 mps 755 mmHg 70%
    18:00 +8°C° 0.1 mm 4 mps 755 mmHg 74%
    19:00 +8°C° 0.1 mm 4 mps 756 mmHg 76%
    20:00 +9°C° 0.1 mm 3 mps 757 mmHg 78%
    21:00 +8°C° 0.1 mm 3 mps 757 mmHg 80%
    22:00 +8°C° 0.1 mm 3 mps 758 mmHg 81%
    23:00 +8°C° 0.1 mm 3 mps 758 mmHg 82%
    Show more